Time,TemperatureF,DewpointF,PressureIn,WindDirection,WindDirectionDegrees,WindSpeedMPH,WindSpeedGustMPH,Humidity,HourlyPrecipIn,Conditions,Clouds,dailyrainin,SoftwareType,DateUTC
2013-01-11 00:04:00,51.3,50.0,30.38,WSW,249,0.0,-999.0,95,-99.99,,,0.01,weatherlink.com 1.10,2013-01-11 05:04:00,
2013-01-11 00:19:00,51.0,50.0,30.37,West,267,1.0,-999.0,95,-99.99,,,0.01,weatherlink.com 1.10,2013-01-11 05:19:00,
2013-01-11 00:34:00,50.9,50.0,30.38,WNW,287,0.0,-999.0,96,-99.99,,,0.01,weatherlink.com 1.10,2013-01-11 05:34:00,
2013-01-11 00:49:00,50.6,50.0,30.36,NW,304,4.0,-999.0,96,-99.99,,,0.02,weatherlink.com 1.10,2013-01-11 05:49:00,
2013-01-11 01:04:00,51.0,50.0,30.36,SSE,163,2.0,-999.0,97,-99.99,,,0.02,weatherlink.com 1.10,2013-01-11 06:04:00,
2013-01-11 01:19:00,51.5,51.0,30.35,SW,236,3.0,-999.0,97,-99.99,,,0.02,weatherlink.com 1.10,2013-01-11 06:19:00,
2013-01-11 01:34:00,52.0,51.0,30.34,SSE,162,0.0,-999.0,97,-99.99,,,0.02,weatherlink.com 1.10,2013-01-11 06:34:00,
2013-01-11 01:49:00,52.1,51.0,30.34,WSW,242,1.0,-999.0,97,-99.99,,,0.02,weatherlink.com 1.10,2013-01-11 06:49:00,
2013-01-11 02:04:00,51.9,51.0,30.34,South,177,0.0,-999.0,97,-99.99,,,0.02,weatherlink.com 1.10,2013-01-11 07:04:00,
2013-01-11 02:19:00,51.8,51.0,30.33,WSW,251,2.0,-999.0,97,-99.99,,,0.02,weatherlink.com 1.10,2013-01-11 07:19:00,
2013-01-11 02:34:00,51.8,51.0,30.32,East,89,3.0,-999.0,98,-99.99,,,0.02,weatherlink.com 1.10,2013-01-11 07:34:00,
2013-01-11 02:49:00,52.4,52.0,30.31,ESE,105,1.0,-999.0,98,-99.99,,,0.02,weatherlink.com 1.10,2013-01-11 07:49:00,
2013-01-11 03:04:00,52.5,52.0,30.32,South,173,0.0,-999.0,98,-99.99,,,0.02,weatherlink.com 1.10,2013-01-11 08:04:00,
2013-01-11 03:19:00,52.4,52.0,30.31,NE,54,1.0,-999.0,98,-99.99,,,0.03,weatherlink.com 1.10,2013-01-11 08:19:00,
2013-01-11 03:34:00,52.5,52.0,30.30,East,84,4.0,-999.0,98,-99.99,,,0.03,weatherlink.com 1.10,2013-01-11 08:34:00,
2013-01-11 03:49:00,52.4,52.0,30.29,SSW,194,3.0,-999.0,98,-99.99,,,0.03,weatherlink.com 1.10,2013-01-11 08:49:00,
2013-01-11 04:04:00,52.3,52.0,30.29,SE,124,2.0,-999.0,98,-99.99,,,0.04,weatherlink.com 1.10,2013-01-11 09:04:00,
2013-01-11 04:19:00,52.4,52.0,30.29,SSW,201,3.0,-999.0,98,-99.99,,,0.04,weatherlink.com 1.10,2013-01-11 09:19:00,
2013-01-11 04:34:00,52.5,52.0,30.29,ENE,57,1.0,-999.0,98,-99.99,,,0.04,weatherlink.com 1.10,2013-01-11 09:34:00,
2013-01-11 04:49:00,52.5,52.0,30.30,South,174,1.0,-999.0,98,-99.99,,,0.04,weatherlink.com 1.10,2013-01-11 09:49:00,
2013-01-11 05:04:00,52.0,52.0,30.30,South,184,0.0,-999.0,98,-99.99,,,0.04,weatherlink.com 1.10,2013-01-11 10:04:00,
2013-01-11 05:19:00,51.8,51.0,30.28,SSW,193,0.0,-999.0,98,-99.99,,,0.05,weatherlink.com 1.10,2013-01-11 10:19:00,
2013-01-11 05:34:00,51.4,51.0,30.27,SW,215,2.0,-999.0,98,-99.99,,,0.05,weatherlink.com 1.10,2013-01-11 10:34:00,
2013-01-11 05:49:00,51.2,51.0,30.26,West,267,3.0,-999.0,98,-99.99,,,0.06,weatherlink.com 1.10,2013-01-11 10:49:00,
2013-01-11 06:04:00,51.6,51.0,30.26,SE,127,0.0,-999.0,98,-99.99,,,0.06,weatherlink.com 1.10,2013-01-11 11:04:00,
2013-01-11 06:19:00,51.6,51.0,30.26,SSE,147,2.0,-999.0,98,-99.99,,,0.08,weatherlink.com 1.10,2013-01-11 11:19:00,
2013-01-11 06:34:00,51.5,51.0,30.28,ESE,122,1.0,-999.0,98,-99.99,,,0.08,weatherlink.com 1.10,2013-01-11 11:34:00,
2013-01-11 06:49:00,51.7,51.0,30.27,SW,236,2.0,-999.0,98,-99.99,,,0.09,weatherlink.com 1.10,2013-01-11 11:49:00,
2013-01-11 07:04:00,51.7,51.0,30.27,SSW,200,0.0,-999.0,98,-99.99,,,0.10,weatherlink.com 1.10,2013-01-11 12:04:00,
2013-01-11 07:19:00,51.6,51.0,30.28,WSW,255,1.0,-999.0,98,-99.99,,,0.13,weatherlink.com 1.10,2013-01-11 12:19:00,
2013-01-11 07:34:00,52.0,52.0,30.27,NNW,335,2.0,-999.0,98,-99.99,,,0.19,weatherlink.com 1.10,2013-01-11 12:34:00,
2013-01-11 07:49:00,52.1,52.0,30.28,SSE,165,0.0,-999.0,99,-99.99,,,0.22,weatherlink.com 1.10,2013-01-11 12:49:00,
2013-01-11 08:04:00,52.2,52.0,30.28,SSW,211,2.0,-999.0,99,-99.99,,,0.24,weatherlink.com 1.10,2013-01-11 13:04:00,
2013-01-11 08:19:00,52.2,52.0,30.29,SSE,166,2.0,-999.0,99,-99.99,,,0.28,weatherlink.com 1.10,2013-01-11 13:19:00,
2013-01-11 08:34:00,52.1,52.0,30.29,SW,214,2.0,-999.0,99,-99.99,,,0.31,weatherlink.com 1.10,2013-01-11 13:34:00,
2013-01-11 08:49:00,52.0,52.0,30.30,SW,215,3.0,-999.0,99,-99.99,,,0.33,weatherlink.com 1.10,2013-01-11 13:49:00,
2013-01-11 09:04:00,51.8,52.0,30.30,WSW,238,1.0,-999.0,99,-99.99,,,0.37,weatherlink.com 1.10,2013-01-11 14:04:00,
2013-01-11 09:19:00,51.7,52.0,30.31,WSW,248,0.0,-999.0,99,-99.99,,,0.42,weatherlink.com 1.10,2013-01-11 14:19:00,
2013-01-11 09:34:00,51.5,51.0,30.31,SE,145,0.0,-999.0,99,-99.99,,,0.45,weatherlink.com 1.10,2013-01-11 14:34:00,
2013-01-11 09:49:00,51.6,51.0,30.31,SSE,159,1.0,-999.0,99,-99.99,,,0.47,weatherlink.com 1.10,2013-01-11 14:49:00,
2013-01-11 10:04:00,51.1,51.0,30.30,South,185,2.0,-999.0,99,-99.99,,,0.48,weatherlink.com 1.10,2013-01-11 15:04:00,
2013-01-11 10:19:00,51.7,52.0,30.30,South,183,5.0,-999.0,99,-99.99,,,0.49,weatherlink.com 1.10,2013-01-11 15:19:00,
2013-01-11 10:34:00,51.6,51.0,30.30,South,175,0.0,-999.0,99,-99.99,,,0.50,weatherlink.com 1.10,2013-01-11 15:34:00,
2013-01-11 10:49:00,51.1,51.0,30.30,NNW,333,1.0,-999.0,99,-99.99,,,0.51,weatherlink.com 1.10,2013-01-11 15:49:00,
2013-01-11 11:04:00,50.9,51.0,30.29,West,264,0.0,-999.0,99,-99.99,,,0.53,weatherlink.com 1.10,2013-01-11 16:04:00,
2013-01-11 11:19:00,51.6,51.0,30.29,SSE,152,0.0,-999.0,99,-99.99,,,0.55,weatherlink.com 1.10,2013-01-11 16:19:00,
2013-01-11 11:34:00,51.9,52.0,30.27,SSE,155,0.0,-999.0,99,-99.99,,,0.57,weatherlink.com 1.10,2013-01-11 16:34:00,
2013-01-11 11:49:00,51.5,51.0,30.26,South,175,1.0,-999.0,99,-99.99,,,0.58,weatherlink.com 1.10,2013-01-11 16:49:00,
2013-01-11 12:04:00,51.2,51.0,30.26,West,276,0.0,-999.0,99,-99.99,,,0.59,weatherlink.com 1.10,2013-01-11 17:04:00,
2013-01-11 12:19:00,51.5,51.0,30.25,SSE,168,0.0,-999.0,99,-99.99,,,0.60,weatherlink.com 1.10,2013-01-11 17:19:00,
2013-01-11 12:34:00,51.4,51.0,30.25,West,274,0.0,-999.0,99,-99.99,,,0.62,weatherlink.com 1.10,2013-01-11 17:34:00,
2013-01-11 12:49:00,51.5,51.0,30.25,NW,312,0.0,-999.0,99,-99.99,,,0.63,weatherlink.com 1.10,2013-01-11 17:49:00,
2013-01-11 13:04:00,50.7,51.0,30.24,NE,47,0.0,-999.0,99,-99.99,,,0.65,weatherlink.com 1.10,2013-01-11 18:04:00,
2013-01-11 13:19:00,51.3,51.0,30.23,NNE,13,0.0,-999.0,99,-99.99,,,0.66,weatherlink.com 1.10,2013-01-11 18:19:00,
2013-01-11 13:34:00,51.4,51.0,30.23,NNW,338,0.0,-999.0,99,-99.99,,,0.66,weatherlink.com 1.10,2013-01-11 18:34:00,
2013-01-11 13:49:00,51.8,52.0,30.22,North,11,0.0,-999.0,99,-99.99,,,0.67,weatherlink.com 1.10,2013-01-11 18:49:00,
2013-01-11 14:03:00,52.0,52.0,30.23,West,267,0.0,-999.0,99,-99.99,,,0.68,weatherlink.com 1.10,2013-01-11 19:03:00,
2013-01-11 14:19:00,52.1,52.0,30.22,South,187,1.0,-999.0,99,-99.99,,,0.68,weatherlink.com 1.10,2013-01-11 19:19:00,
2013-01-11 14:34:00,52.0,52.0,30.23,NW,319,2.0,-999.0,99,-99.99,,,0.68,weatherlink.com 1.10,2013-01-11 19:34:00,
2013-01-11 14:49:00,52.0,52.0,30.22,West,264,0.0,-999.0,99,-99.99,,,0.69,weatherlink.com 1.10,2013-01-11 19:49:00,
2013-01-11 15:04:00,52.5,52.0,30.23,WSW,245,0.0,-999.0,99,-99.99,,,0.69,weatherlink.com 1.10,2013-01-11 20:04:00,
2013-01-11 15:20:00,52.4,52.0,30.22,East,101,0.0,-999.0,99,-99.99,,,0.69,weatherlink.com 1.10,2013-01-11 20:20:00,
2013-01-11 15:34:00,52.6,52.0,30.22,ESE,102,0.0,-999.0,99,-99.99,,,0.70,weatherlink.com 1.10,2013-01-11 20:34:00,
2013-01-11 15:52:00,52.4,52.0,30.21,SE,138,0.0,-999.0,99,-99.99,,,0.70,weatherlink.com 1.10,2013-01-11 20:52:00,
2013-01-11 16:06:00,52.5,52.0,30.21,SE,138,0.0,-999.0,99,-99.99,,,0.71,weatherlink.com 1.10,2013-01-11 21:06:00,
2013-01-11 16:20:00,52.9,53.0,30.21,NNE,33,0.0,-999.0,99,-99.99,,,0.71,weatherlink.com 1.10,2013-01-11 21:20:00,
2013-01-11 16:34:00,52.9,53.0,30.22,NNE,30,0.0,-999.0,99,-99.99,,,0.71,weatherlink.com 1.10,2013-01-11 21:34:00,
2013-01-11 16:49:00,53.7,54.0,30.21,ENE,69,0.0,-999.0,99,-99.99,,,0.71,weatherlink.com 1.10,2013-01-11 21:49:00,
2013-01-11 17:04:00,53.9,54.0,30.20,ENE,67,3.0,-999.0,99,-99.99,,,0.71,weatherlink.com 1.10,2013-01-11 22:04:00,
2013-01-11 17:19:00,54.1,54.0,30.21,SSE,150,0.0,-999.0,99,-99.99,,,0.71,weatherlink.com 1.10,2013-01-11 22:19:00,
2013-01-11 17:34:00,54.2,54.0,30.21,SSE,165,0.0,-999.0,99,-99.99,,,0.72,weatherlink.com 1.10,2013-01-11 22:34:00,
2013-01-11 17:49:00,54.1,54.0,30.21,East,101,0.0,-999.0,99,-99.99,,,0.73,weatherlink.com 1.10,2013-01-11 22:49:00,
2013-01-11 18:04:00,55.0,55.0,30.22,WSW,239,0.0,-999.0,99,-99.99,,,0.74,weatherlink.com 1.10,2013-01-11 23:04:00,
2013-01-11 18:19:00,55.3,55.0,30.23,WSW,245,0.0,-999.0,99,-99.99,,,0.74,weatherlink.com 1.10,2013-01-11 23:19:00,
2013-01-11 18:34:00,55.7,56.0,30.23,NW,319,1.0,-999.0,99,-99.99,,,0.75,weatherlink.com 1.10,2013-01-11 23:34:00,
2013-01-11 18:49:00,55.9,56.0,30.24,SSW,213,1.0,-999.0,99,-99.99,,,0.77,weatherlink.com 1.10,2013-01-11 23:49:00,
2013-01-11 19:04:00,55.9,56.0,30.24,WNW,297,1.0,-999.0,99,-99.99,,,0.79,weatherlink.com 1.10,2013-01-12 00:04:00,
2013-01-11 19:19:00,56.8,57.0,30.24,WSW,243,4.0,-999.0,99,-99.99,,,0.81,weatherlink.com 1.10,2013-01-12 00:19:00,
2013-01-11 19:34:00,57.2,57.0,30.24,SE,140,1.0,-999.0,99,-99.99,,,0.81,weatherlink.com 1.10,2013-01-12 00:34:00,
2013-01-11 19:49:00,57.2,57.0,30.24,ESE,120,3.0,-999.0,99,-99.99,,,0.81,weatherlink.com 1.10,2013-01-12 00:49:00,
2013-01-11 20:04:00,57.1,57.0,30.23,ESE,122,0.0,-999.0,99,-99.99,,,0.81,weatherlink.com 1.10,2013-01-12 01:04:00,
2013-01-11 20:19:00,57.1,57.0,30.23,SE,134,2.0,-999.0,99,-99.99,,,0.82,weatherlink.com 1.10,2013-01-12 01:19:00,
2013-01-11 20:34:00,57.0,57.0,30.23,South,169,0.0,-999.0,99,-99.99,,,0.82,weatherlink.com 1.10,2013-01-12 01:34:00,
2013-01-11 20:49:00,56.9,57.0,30.23,SSE,160,2.0,-999.0,99,-99.99,,,0.82,weatherlink.com 1.10,2013-01-12 01:49:00,
2013-01-11 21:04:00,56.8,57.0,30.24,SSE,148,2.0,-999.0,99,-99.99,,,0.83,weatherlink.com 1.10,2013-01-12 02:04:00,
2013-01-11 21:19:00,56.8,57.0,30.23,ESE,115,0.0,-999.0,99,-99.99,,,0.83,weatherlink.com 1.10,2013-01-12 02:19:00,
2013-01-11 21:34:00,56.7,57.0,30.23,SE,135,0.0,-999.0,99,-99.99,,,0.83,weatherlink.com 1.10,2013-01-12 02:34:00,
2013-01-11 21:49:00,56.7,57.0,30.23,SE,124,2.0,-999.0,99,-99.99,,,0.84,weatherlink.com 1.10,2013-01-12 02:49:00,
2013-01-11 22:04:00,56.9,57.0,30.24,SE,136,1.0,-999.0,99,-99.99,,,0.84,weatherlink.com 1.10,2013-01-12 03:04:00,
2013-01-11 22:19:00,57.0,57.0,30.24,South,175,2.0,-999.0,99,-99.99,,,0.85,weatherlink.com 1.10,2013-01-12 03:19:00,
2013-01-11 22:34:00,57.0,57.0,30.24,SE,144,3.0,-999.0,99,-99.99,,,0.85,weatherlink.com 1.10,2013-01-12 03:34:00,
2013-01-11 22:49:00,57.1,57.0,30.24,SE,137,0.0,-999.0,99,-99.99,,,0.86,weatherlink.com 1.10,2013-01-12 03:49:00,
2013-01-11 23:04:00,57.1,57.0,30.24,SSE,165,0.0,-999.0,99,-99.99,,,0.86,weatherlink.com 1.10,2013-01-12 04:04:00,
2013-01-11 23:19:00,57.3,57.0,30.23,SE,143,1.0,-999.0,99,-99.99,,,0.87,weatherlink.com 1.10,2013-01-12 04:19:00,
2013-01-11 23:34:00,57.4,57.0,30.23,SE,132,0.0,-999.0,99,-99.99,,,0.88,weatherlink.com 1.10,2013-01-12 04:34:00,
2013-01-11 23:49:00,57.0,57.0,30.23,SE,139,2.0,-999.0,99,-99.99,,,0.89,weatherlink.com 1.10,2013-01-12 04:49:00,